Weather History for Edinburg, TX

Change the Weather History Date:

Monday, February 18, 2013

  Actual Average (KMFE) Record (KMFE)
Temperature  
Mean Temperature 26 °C 18 °C  
Max Temperature 31 °C 24 °C 33 °C (1982)
Min Temperature 19 °C 13 °C 1 °C (1917)
Degree Days  
Heating Degree Days 0 3  
Month to date heating degree days 79  
Since 1 July heating degree days 506  
Cooling Degree Days 12 4  
Month to date cooling degree days 54  
Year to date cooling degree days 116  
Growing Degree Days 28 (Base 50)    
Moisture  
Dew Point 16 °C    
Average Humidity 63    
Maximum Humidity 81    
Minimum Humidity 34    
Precipitation  
Precipitation 2.03 mm 1.02 mm 3.00 mm (1973)
Month to date precipitation 0.78  
Year to date precipitation 1.83  
Sea Level Pressure  
Sea Level Pressure 1013 hPa    
Wind  
Wind Speed 24 km/h (SSE)    
Max Wind Speed 45 km/h    
Max Gust Speed 53 km/h    
Visibility 10 kilometers    
Events      
T = Trace of Precipitation, MM = Missing Value Source: NWS Daily Summary

Daily Weather History Graph

Daily Weather History Graph

Search for Another Location

Airport:

Trip Planner

Search our weather history database for the weather conditions in past years. The results will help you decide how hot, cold, wet, or windy it might be!

Date:

Astronomy

Feb. 18, 2013 Rise Set
Actual Time 7:05 AM CST 6:27 PM CST
Civil Twilight 6:42 AM CST 6:50 PM CST
Nautical Twilight 6:15 AM CST 7:18 PM CST
Astronomical Twilight 5:48 AM CST 7:44 PM CST
Moon 12:30 PM CST (2/18) 1:31 AM CST (2/18)
Length of Visible Light 12h 08m
Length of Day
11h 21m
First Quarter, 58% of the Moon is Illuminated
Feb 18
First Quarter
Feb 25
Full
Mar 4
Last Quarter
Mar 11
New
Mar 19
First Quarter

Hourly Weather History & Observations

Time (CST) Temp. Heat Index Dew Point Humidity Pressure Visibility Wind Dir Wind Speed Gust Speed Precip Events Conditions
12:15 AM 20.7 °C - 14.3 °C 67% 1015.8 hPa 11.3 km South 31.5 km/h / 8.7 m/s 46.3 km/h / 12.9 m/s N/A   Overcast
12:35 AM 20.6 °C - 14.7 °C 69% 1015.5 hPa 11.3 km SSE 31.5 km/h / 8.7 m/s 38.9 km/h / 10.8 m/s N/A   Overcast
12:55 AM 20.5 °C - 15.0 °C 71% 1015.5 hPa 11.3 km SSE 24.1 km/h / 6.7 m/s - N/A   Overcast
1:15 AM 20.5 °C - 15.1 °C 71% 1015.1 hPa 11.3 km SSE 24.1 km/h / 6.7 m/s 29.6 km/h / 8.2 m/s N/A   Overcast
1:35 AM 20.5 °C - 15.2 °C 72% 1015.1 hPa 11.3 km SSE 22.2 km/h / 6.2 m/s 29.6 km/h / 8.2 m/s N/A   Overcast
1:55 AM 20.5 °C - 15.3 °C 72% 1014.8 hPa 11.3 km SSE 25.9 km/h / 7.2 m/s 35.2 km/h / 9.8 m/s N/A   Overcast
2:15 AM 20.5 °C - 15.5 °C 73% 1014.8 hPa 11.3 km SSE 16.7 km/h / 4.6 m/s 29.6 km/h / 8.2 m/s N/A   Overcast
2:35 AM 20.5 °C - 15.5 °C 73% 1014.4 hPa 11.3 km SSE 18.5 km/h / 5.1 m/s - N/A   Overcast
2:55 AM 20.5 °C - 15.6 °C 73% 1014.1 hPa 11.3 km SSE 16.7 km/h / 4.6 m/s - N/A   Overcast
3:15 AM 20.3 °C - 15.8 °C 75% 1013.8 hPa 11.3 km SSE 13.0 km/h / 3.6 m/s - N/A   Overcast
3:35 AM 20.5 °C - 15.9 °C 75% 1013.8 hPa 11.3 km SSE 18.5 km/h / 5.1 m/s 27.8 km/h / 7.7 m/s N/A   Overcast
3:55 AM 20.6 °C - 15.9 °C 74% 1013.4 hPa 8.0 km SSE 22.2 km/h / 6.2 m/s 27.8 km/h / 7.7 m/s N/A   Haze
4:15 AM 20.6 °C - 16.0 °C 75% 1013.4 hPa 11.3 km SSE 24.1 km/h / 6.7 m/s 31.5 km/h / 8.7 m/s N/A   Overcast
4:35 AM 20.3 °C - 16.4 °C 78% 1013.1 hPa 8.0 km SSE 22.2 km/h / 6.2 m/s 33.3 km/h / 9.3 m/s N/A   Haze
4:55 AM 20.5 °C - 16.4 °C 77% 1012.8 hPa 11.3 km SSE 16.7 km/h / 4.6 m/s 25.9 km/h / 7.2 m/s N/A   Overcast
5:15 AM 20.6 °C - 16.5 °C 77% 1012.8 hPa 11.3 km SSE 18.5 km/h / 5.1 m/s - N/A   Overcast
5:35 AM 20.7 °C - 16.6 °C 77% 1012.8 hPa 11.3 km SSE 22.2 km/h / 6.2 m/s 33.3 km/h / 9.3 m/s N/A   Overcast
5:55 AM 20.6 °C - 16.7 °C 78% 1012.8 hPa 11.3 km SSE 20.4 km/h / 5.7 m/s 29.6 km/h / 8.2 m/s N/A   Overcast
6:15 AM 20.7 °C - 16.8 °C 78% 1012.4 hPa 11.3 km SSE 22.2 km/h / 6.2 m/s - N/A   Overcast
6:35 AM 20.6 °C - 16.9 °C 79% 1012.4 hPa 11.3 km South 22.2 km/h / 6.2 m/s - N/A   Overcast
6:55 AM 20.7 °C - 17.0 °C 79% 1012.8 hPa 11.3 km SSE 22.2 km/h / 6.2 m/s 29.6 km/h / 8.2 m/s N/A   Overcast
7:15 AM 20.7 °C - 17.0 °C 79% 1012.8 hPa 8.0 km South 24.1 km/h / 6.7 m/s 31.5 km/h / 8.7 m/s N/A   Haze
7:35 AM 20.7 °C - 17.0 °C 79% 1012.8 hPa 8.0 km SSE 22.2 km/h / 6.2 m/s 35.2 km/h / 9.8 m/s N/A   Haze
7:55 AM 21.0 °C - 17.1 °C 78% 1012.8 hPa 11.3 km SSE 25.9 km/h / 7.2 m/s 33.3 km/h / 9.3 m/s N/A   Scattered Clouds
8:15 AM 21.5 °C - 17.1 °C 76% 1012.8 hPa 6.4 km SSE 25.9 km/h / 7.2 m/s 35.2 km/h / 9.8 m/s 2.0 mm   Haze
8:35 AM 22.2 °C - 17.2 °C 73% 1013.1 hPa 11.3 km South 22.2 km/h / 6.2 m/s 29.6 km/h / 8.2 m/s 2.0 mm   Scattered Clouds
8:55 AM 22.6 °C - 17.2 °C 71% 1013.8 hPa 11.3 km South 31.5 km/h / 8.7 m/s 40.7 km/h / 11.3 m/s 2.0 mm   Mostly Cloudy
9:15 AM 22.9 °C - 17.2 °C 70% 1013.8 hPa 8.0 km South 29.6 km/h / 8.2 m/s 38.9 km/h / 10.8 m/s N/A   Haze
9:35 AM 23.5 °C - 17.1 °C 67% 1013.8 hPa 6.4 km South 33.3 km/h / 9.3 m/s 42.6 km/h / 11.8 m/s N/A   Haze
9:55 AM 24.3 °C - 17.1 °C 64% 1013.8 hPa 11.3 km South 37.0 km/h / 10.3 m/s 46.3 km/h / 12.9 m/s N/A   Overcast
10:15 AM 24.7 °C - 17.0 °C 62% 1013.8 hPa 11.3 km South 31.5 km/h / 8.7 m/s 44.4 km/h / 12.3 m/s N/A   Overcast
10:35 AM 25.1 °C - 16.7 °C 59% 1013.8 hPa 11.3 km South 37.0 km/h / 10.3 m/s 53.7 km/h / 14.9 m/s N/A   Overcast
10:55 AM 25.7 °C - 16.5 °C 57% 1013.8 hPa 11.3 km South 31.5 km/h / 8.7 m/s 44.4 km/h / 12.3 m/s N/A   Overcast
11:15 AM 26.1 °C - 16.3 °C 55% 1013.8 hPa 8.0 km South 40.7 km/h / 11.3 m/s 50.0 km/h / 13.9 m/s N/A   Haze
11:35 AM 26.9 °C 27.4 °C 16.0 °C 51% 1013.1 hPa 8.0 km South 44.4 km/h / 12.3 m/s 51.9 km/h / 14.4 m/s N/A   Haze
11:55 AM 28.2 °C 28.4 °C 15.9 °C 47% 1012.8 hPa 11.3 km South 38.9 km/h / 10.8 m/s 48.2 km/h / 13.4 m/s N/A   Mostly Cloudy
12:15 PM 28.5 °C 28.6 °C 15.9 °C 46% 1012.4 hPa 11.3 km South 33.3 km/h / 9.3 m/s 48.2 km/h / 13.4 m/s N/A   Scattered Clouds
12:35 PM 28.6 °C 28.6 °C 15.7 °C 45% 1012.4 hPa 8.0 km South 27.8 km/h / 7.7 m/s 50.0 km/h / 13.9 m/s N/A   Haze
12:55 PM 28.7 °C 28.8 °C 15.8 °C 45% 1012.1 hPa 8.0 km South 35.2 km/h / 9.8 m/s 42.6 km/h / 11.8 m/s N/A   Haze
1:15 PM 29.7 °C 29.6 °C 15.5 °C 42% 1011.7 hPa 8.0 km South 29.6 km/h / 8.2 m/s 38.9 km/h / 10.8 m/s N/A   Haze
1:35 PM 30.1 °C 29.8 °C 15.2 °C 40% 1011.7 hPa 11.3 km South 25.9 km/h / 7.2 m/s 35.2 km/h / 9.8 m/s N/A   Clear
1:55 PM 30.6 °C 30.2 °C 14.9 °C 38% 1011.1 hPa 11.3 km SSE 27.8 km/h / 7.7 m/s 38.9 km/h / 10.8 m/s N/A   Clear
2:15 PM 30.8 °C 30.3 °C 14.5 °C 37% 1011.1 hPa 11.3 km SSW 25.9 km/h / 7.2 m/s 31.5 km/h / 8.7 m/s N/A   Clear
2:35 PM 31.3 °C 30.6 °C 14.0 °C 35% 1010.7 hPa 11.3 km South 18.5 km/h / 5.1 m/s 29.6 km/h / 8.2 m/s N/A   Clear
2:55 PM 31.5 °C 30.7 °C 13.8 °C 34% 1010.4 hPa 6.4 km South 14.8 km/h / 4.1 m/s - N/A   Haze
3:15 PM 31.3 °C 30.5 °C 13.5 °C 34% 1010.4 hPa 11.3 km South 18.5 km/h / 5.1 m/s - N/A   Scattered Clouds
3:35 PM 31.1 °C 30.3 °C 13.4 °C 34% 1010.0 hPa 11.3 km South 18.5 km/h / 5.1 m/s 33.3 km/h / 9.3 m/s N/A   Scattered Clouds
3:55 PM 31.0 °C 30.9 °C 15.8 °C 40% 1009.7 hPa 8.0 km SSE 29.6 km/h / 8.2 m/s 35.2 km/h / 9.8 m/s N/A   Haze
4:15 PM 29.8 °C 29.7 °C 15.7 °C 42% 1010.0 hPa 8.0 km SSE 27.8 km/h / 7.7 m/s - N/A   Haze
4:35 PM 29.6 °C 29.6 °C 15.8 °C 43% 1010.0 hPa 11.3 km SSE 27.8 km/h / 7.7 m/s 37.0 km/h / 10.3 m/s N/A   Clear
4:55 PM 29.0 °C 29.1 °C 15.8 °C 45% 1010.4 hPa 8.0 km SE 27.8 km/h / 7.7 m/s 44.4 km/h / 12.3 m/s N/A   Haze
5:15 PM 28.5 °C 28.6 °C 15.7 °C 46% 1010.4 hPa 11.3 km SE 25.9 km/h / 7.2 m/s 33.3 km/h / 9.3 m/s N/A   Clear
5:35 PM 28.0 °C 28.2 °C 15.6 °C 47% 1010.7 hPa 8.0 km SE 24.1 km/h / 6.7 m/s - N/A   Haze
6:15 PM 26.5 °C - 15.6 °C 51% 1011.4 hPa 11.3 km SE 24.1 km/h / 6.7 m/s - N/A   Clear
6:35 PM 25.5 °C - 16.0 °C 56% 1011.7 hPa 8.0 km SE 25.9 km/h / 7.2 m/s - N/A   Haze
6:55 PM 24.8 °C - 16.0 °C 58% 1012.1 hPa 8.0 km SE 24.1 km/h / 6.7 m/s 29.6 km/h / 8.2 m/s N/A   Haze
7:15 PM 24.4 °C - 16.1 °C 60% 1012.4 hPa 11.3 km SSE 18.5 km/h / 5.1 m/s - N/A   Clear
7:35 PM 23.9 °C - 16.5 °C 63% 1013.1 hPa 11.3 km SSE 25.9 km/h / 7.2 m/s - N/A   Clear
7:55 PM 23.5 °C - 16.5 °C 65% 1013.4 hPa 11.3 km SSE 18.5 km/h / 5.1 m/s - N/A   Clear
8:15 PM 23.2 °C - 16.3 °C 65% 1013.8 hPa 11.3 km SSE 20.4 km/h / 5.7 m/s 29.6 km/h / 8.2 m/s N/A   Clear
8:35 PM 22.9 °C - 16.4 °C 67% 1014.4 hPa 11.3 km SSE 13.0 km/h / 3.6 m/s - N/A   Clear
8:55 PM 22.5 °C - 16.5 °C 69% 1014.4 hPa 11.3 km SSE 13.0 km/h / 3.6 m/s - N/A   Clear
9:15 PM 22.5 °C - 16.6 °C 69% 1014.8 hPa 11.3 km SSE 14.8 km/h / 4.1 m/s - N/A   Clear
9:35 PM 22.1 °C - 16.7 °C 71% 1014.8 hPa 11.3 km South 14.8 km/h / 4.1 m/s - N/A   Clear
9:55 PM 21.8 °C - 16.7 °C 73% 1015.5 hPa 11.3 km SSE 9.3 km/h / 2.6 m/s - N/A   Clear
10:15 PM 21.5 °C - 16.9 °C 75% 1015.5 hPa 11.3 km SSE 9.3 km/h / 2.6 m/s - N/A   Clear
10:35 PM 21.1 °C - 16.8 °C 76% 1015.5 hPa 11.3 km SSE 9.3 km/h / 2.6 m/s - N/A   Clear
10:55 PM 20.5 °C - 16.7 °C 79% 1015.5 hPa 11.3 km SSE 7.4 km/h / 2.1 m/s - N/A   Clear
11:15 PM 20.2 °C - 16.5 °C 79% 1015.5 hPa 11.3 km SE 5.6 km/h / 1.5 m/s - N/A   Clear
11:35 PM 19.7 °C - 16.4 °C 81% 1015.8 hPa 11.3 km SE 5.6 km/h / 1.5 m/s - N/A   Clear
11:55 PM 19.3 °C - 16.0 °C 81% 1015.8 hPa 8.0 km ESE 5.6 km/h / 1.5 m/s - N/A   Haze